+ View the NASA Portal
+ Center for Near-Earth Object Studies
JPL Small-Body Database Browser
Search:
[
help
]
175647 (4091 P-L)
Classification:
Main-belt Asteroid
SPK-ID:
2175647
[
Ephemeris
|
Orbit Diagram
|
Orbital Elements
|
Mission Design
|
Physical Parameters
|
Discovery Circumstances
|
Close-Approach Data
]
[ show orbit diagram ]
Orbital Elements at Epoch 2459200.5 (2020-Dec-17.0) TDB
Reference:
JPL 18
(heliocentric ecliptic J2000)
Element
Value
Uncertainty (1-sigma)
Units
e
.2558694314107089
4.4707e-08
a
2.614278111599314
9.0341e-09
au
q
1.945364257634935
1.1729e-07
au
i
2.827568866369111
4.5916e-06
deg
node
224.2072732426905
0.00010021
deg
peri
142.4272445690619
0.00010073
deg
M
91.61260035782882
8.3124e-06
deg
t
p
2458807.602905986857
(2019-Nov-20.10290599)
3.5405e-05
TDB
period
1543.92467075785
4.23
8.0029e-06
2.191e-08
d
yr
n
.2331719978431919
1.2086e-09
deg/d
Q
3.283191965563693
1.1346e-08
au
Orbit Determination Parameters
# obs. used (total)
476
data-arc span
22078 days (60.45 yr)
first obs. used
1960-09-24
last obs. used
2021-03-06
planetary ephem.
DE441
SB-pert. ephem.
SB441-N16
condition code
0
norm. resid. RMS
.56396
source
ORB
producer
Otto Matic
solution date
2021-Apr-13 21:06:15
Additional Information
Earth MOID
= .943541 au
Jupiter MOID
= 2.19054 au
T_jup
= 3.359
[ show covariance matrix ]
[
Ephemeris
|
Orbit Diagram
|
Orbital Elements
|
Mission Design
|
Physical Parameters
|
Discovery Circumstances
|
Close-Approach Data
]
Physical Parameter Table
Parameter
Symbol
Value
Units
Sigma
Reference
Notes
absolute magnitude
H
16.6
n/a
MPO493979
175647 (4091 P-L)
Discovered 1960-Sep-24 by van Houten, C. J., van Houten-Groeneveld, I., Gehrels, T. at Palomar
Reference:
20080122/Numbers.arc
Last Updated:
2008-01-28
[ show close-approach data ]
Alternate Designations
4091 P-L
= 1998 RK56
[
Ephemeris
|
Orbit Diagram
|
Orbital Elements
|
Mission Design
|
Physical Parameters
|
Discovery Circumstances
|
Close-Approach Data
]
2021-Apr-16 19:57 UT
(server date/time)
Site Manager:
Ryan S. Park
Webmaster
:
Alan B. Chamberlin